Anvik, AK

3:57 PM AKST on January 18, 2017 (GMT -0900)
Anvik

Weather History for PANV - June, 2013

Change the Weather History Date:

Saturday, June 15, 2013

  Actual Average Record
Temperature  
Mean Temperature 64 °F -  
Max Temperature 75 °F 61 °F 75 °F (2003)
Min Temperature 53 °F 45 °F 39 °F (2001)
Degree Days  
Heating Degree Days 1    
Growing Degree Days 14 (Base 50)    
Moisture  
Dew Point 49 °F    
Average Humidity 63    
Maximum Humidity 82    
Minimum Humidity 38    
Precipitation  
Precipitation 0.00 in - - ()
Sea Level Pressure  
Sea Level Pressure 30.15 in    
Wind  
Wind Speed 6 mph (ESE)    
Max Wind Speed 12 mph    
Max Gust Speed -    
Visibility 10 miles    
Events      
Averages and records for this station are not official NWS values.
T = Trace of Precipitation, MM = Missing Value Source: NWS Daily Summary

Daily Weather History Graph

Daily Weather History Graph

Search for Another Location

Airport or City:

Trip Planner

Search our weather history database for the weather conditions in past years. The results will help you decide how hot, cold, wet, or windy it might be!

Date:

Astronomy

Jun. 15, 2013 Rise Set
Actual Time 4:40 AM AKDT 12:42 AM AKDT
Civil Twilight 3:13 AM AKDT 2:09 AM AKDT
Nautical Twilight Sun does not rise Sun does not rise
Astronomical Twilight Sun does not rise Sun does not rise
Moon 1:50 PM AKDT (6/15) 2:09 AM AKDT (6/15)
Length of Visible Light 22h 55m
Length of Day
20h 02m
Waxing Crescent, 41% of the Moon is Illuminated
Jun 15
Waxing Crescent
Jun 16
First Quarter
Jun 23
Full
Jun 29
Last Quarter
Jul 7
New

Hourly Weather History & Observations

Time (AKDT) Temp. Dew Point Humidity Pressure Visibility Wind Dir Wind Speed Gust Speed Precip Events Conditions
12:16 AM 57.2 °F 48.2 °F 72% 30.21 in 10.0 mi SE 5.8 mph - N/A   Overcast
12:36 AM 57.2 °F 48.2 °F 72% 30.21 in 10.0 mi SE 5.8 mph - N/A   Mostly Cloudy
12:56 AM 57.2 °F 48.2 °F 72% 30.21 in 10.0 mi SE 5.8 mph - N/A   Mostly Cloudy
1:16 AM 57.2 °F 48.2 °F 72% 30.21 in 10.0 mi SE 5.8 mph - N/A   Overcast
1:36 AM 57.2 °F 48.2 °F 72% 30.21 in 10.0 mi SSE 4.6 mph - N/A   Overcast
2:16 AM 57.2 °F 48.2 °F 72% 30.20 in 10.0 mi SSE 4.6 mph - N/A   Overcast
4:36 AM 55.4 °F 48.2 °F 77% 30.18 in 9.0 mi East 5.8 mph - N/A   Overcast
4:56 AM 55.4 °F 48.2 °F 77% 30.18 in 10.0 mi East 3.5 mph - N/A   Overcast
5:16 AM 55.4 °F 48.2 °F 77% 30.17 in 10.0 mi ENE 4.6 mph - N/A   Overcast
5:36 AM 53.6 °F 48.2 °F 82% 30.17 in 10.0 mi ENE 4.6 mph - N/A   Overcast
5:56 AM 53.6 °F 48.2 °F 82% 30.17 in 10.0 mi ENE 5.8 mph - N/A   Overcast
6:16 AM 53.6 °F 48.2 °F 82% 30.16 in 10.0 mi ENE 6.9 mph - N/A   Overcast
7:16 AM 55.4 °F 48.2 °F 77% 30.16 in 10.0 mi ENE 9.2 mph - N/A   Overcast
7:36 AM 55.4 °F 50.0 °F 82% 30.15 in 10.0 mi ENE 9.2 mph - N/A   Overcast
9:56 AM 57.2 °F 51.8 °F 82% 30.15 in 10.0 mi East 6.9 mph - N/A   Overcast
10:16 AM 57.2 °F 51.8 °F 82% 30.14 in 10.0 mi ENE 8.1 mph - N/A   Overcast
10:36 AM 59.0 °F 51.8 °F 77% 30.14 in 10.0 mi East 5.8 mph - N/A   Overcast
10:56 AM 60.8 °F 51.8 °F 72% 30.14 in 10.0 mi East 5.8 mph - N/A   Overcast
11:16 AM 60.8 °F 51.8 °F 72% 30.14 in 10.0 mi East 6.9 mph - N/A   Overcast
11:36 AM 62.6 °F 51.8 °F 68% 30.14 in 10.0 mi East 5.8 mph - N/A   Mostly Cloudy
12:36 PM 66.2 °F 51.8 °F 60% 30.14 in 10.0 mi SE 5.8 mph - N/A   Overcast
12:56 PM 68.0 °F 51.8 °F 56% 30.13 in 10.0 mi South 3.5 mph - N/A   Mostly Cloudy
1:16 PM 68.0 °F 51.8 °F 56% 30.13 in 10.0 mi South 8.1 mph - N/A   Overcast
2:56 PM 73.4 °F 48.2 °F 41% 30.13 in 10.0 mi SSE 11.5 mph - N/A   Mostly Cloudy
3:16 PM 73.4 °F 50.0 °F 44% 30.13 in 10.0 mi South 11.5 mph - N/A   Partly Cloudy
3:36 PM 73.4 °F 48.2 °F 41% 30.13 in 8.0 mi SSE 10.4 mph - N/A   Mostly Cloudy
3:56 PM 73.4 °F 48.2 °F 41% 30.13 in 10.0 mi South 9.2 mph - N/A   Partly Cloudy
4:16 PM 73.4 °F 48.2 °F 41% 30.12 in 10.0 mi South 8.1 mph - N/A   Mostly Cloudy
4:56 PM 73.4 °F 46.4 °F 38% 30.12 in 10.0 mi South 9.2 mph - N/A   Mostly Cloudy
5:16 PM 73.4 °F 46.4 °F 38% 30.12 in 10.0 mi SSE 9.2 mph - N/A   Overcast
6:36 PM 73.4 °F 48.2 °F 41% 30.12 in 10.0 mi SSE 4.6 mph - N/A   Overcast
6:56 PM 75.2 °F 48.2 °F 38% 30.12 in 10.0 mi South 6.9 mph - N/A   Overcast
7:16 PM 75.2 °F 48.2 °F 38% 30.13 in 10.0 mi South 3.5 mph - N/A   Scattered Clouds